Location: Asheville, NC
(35.6000°N, 82.5500°W)
Time: 02:31:59
(UTC-04:00)

RS-15 - Pass Details

Date: 15 March 2018
Orbit: 1890 x 2154 km, 64.8° (Epoch: 20 June)

Event Time Altitude Azimuth Distance (km) Brightness Sun altitude
Exits shadow 01:27:01 38° 9° (N) 2,919 9.0 -56.4°
Drops below altitude 10° 01:33:39 10° 25° (NNE) 4,580 10.3 -56.5°
Sets 01:37:06 0° 29° (NNE) 5,554 10.8 -56.5°
